[Iaude] MPEC D134: 2010 JP15 = 2023 UF14 [a=2.79, e=0.58, i=40.7, H=18.86]

mpec at cfa.harvard.edu mpec at cfa.harvard.edu
Wed Feb 28 21:23:01 EST 2024


M.P.E.C. 2024-D134                            Issued 2024 February 29, 02:19 UT

     The Minor Planet Electronic Circulars contain information on unusual
         minor planets, routine data on comets and natural satellites,
         and occasional editorial announcements.  They are published
    on behalf of Division F of the International Astronomical Union by the
          Minor Planet Center, Smithsonian Astrophysical Observatory,
                          Cambridge, MA 02138, U.S.A.
			  
             Prepared using the Tamkin Foundation Computer Network

                              MPC at CFA.HARVARD.EDU
            URL https://www.minorplanetcenter.net/    ISSN 1523-6714

                             2010 JP15 = 2023 UF14                              

                           Revision to MPEC 2023-V121

Orbital elements:
2010 JP15 = 2023 UF14                                    Earth MOID = 0.2044 AU
Epoch 2024 Mar. 31.0 TT = JDT 2460400.5                 Veres                   
M  23.49238              (2000.0)            P               Q                  
n   0.21192533     Peri.  162.14803     -0.42045345     -0.75291219             
a   2.7862118      Node   309.12551     +0.73236751     +0.04777462             
e   0.5797921      Incl.   40.74160     +0.53559007     -0.65638466             
P   4.65           H   18.86          G   0.15           U   0                  
Residuals in seconds of arc
100119 661  1.5-  0.8-    231101 F51  0.1-  0.0     231221 B88  0.2-  0.3+
100119 661  1.1+  0.3+    231103 F51  0.1-  0.0     231222 C51  0.1-  0.3+
100119 661  0.6-  0.1+    231103 F51  0.0   0.0     231222 C51  0.1-  0.2+
100119 661  0.6+  0.1-    231108 I52  0.1-  0.3-    231222 C51  0.0   0.1+
100215 F51  0.0   0.0     231108 I52  0.2+  0.1+    231222 C51  0.5-  0.0
100215 F51  0.1+  0.0     231108 I52  0.0   0.2+    231222 C51  0.1+  0.2+
100228 F51  0.1-  0.2-    231113 G96  0.1-  0.2-    231222 C51  0.4-  0.0
100228 F51  0.1-  0.0     231113 G96  0.3+  0.1+    231222 C51  0.3-  0.1+
100502 C51  1.4-  0.6-    231113 G96  0.0   0.2+    231223 C51  0.4-  0.1+
100502 C51  0.3+  0.3-    231113 G96  0.3-  0.1-    231223 C51  0.2-  0.1+
100502 C51  0.1+  0.1+    231206 I52  0.4+  0.2+    231223 C51  0.2-  0.2+
100502 C51  0.2-  0.9+    231206 I52  0.2+  0.1-    231223 C51  0.3-  0.3-
100503 C51  0.3+  0.3-    231206 I52  0.4-  0.5-    231223 C51  0.1+  0.1+
100503 C51  0.2+  0.8-    231216 B88  1.4+  1.9+    231223 C51  0.2-  0.2-
100503 C51  0.2-  0.3+    231216 B88  0.5-  0.5+    231223 C51  0.3-  0.1-
100503 C51  0.2-  0.1+    231216 B88  1.0-  0.4-    231223 C51  0.0   0.0
100503 C51  0.0   0.9-    231217 G96  0.4-  0.1-    231223 C51  0.4-  0.1+
100503 C51  0.5-  0.2+    231217 G96  0.3-  0.4+    231223 C51  1.0-  0.0
100504 C51  0.2-  0.5+    231217 G96  0.0   0.2+    231223 C51  0.2-  0.2-
100504 C51  0.7+  1.6+    231217 G96  0.0   0.2+    231223 C51  0.6-  0.2-
100504 C51  0.3-  0.2+    231217 G96  0.2-  0.0     231223 C51  0.1-  0.6+
100504 C51  0.2-  0.1+    231217 G96  0.0   0.1-    231223 C51  0.2+  0.6+
100504 C51  0.1-  0.1-    231217 G96  0.0   0.1+    231224 C51  0.3-  0.6+
100504 C51  0.5-  0.0     231217 G96  0.5-  0.6+    231224 C51  0.5-  0.4+
100504 C51  0.3-  0.3+    231218 B88  0.0   0.2+    231225 B88  0.8-  0.2+
100505 C51  0.5-  0.6-    231218 B88  1.0-  1.1+    231225 B88  0.2+  0.0
100505 C51  0.3-  0.7+    231218 B88  0.4-  1.6+    231225 B88  0.3+  0.5+
100505 C51  0.4-  0.2+    231219 B88  0.0   0.2+    240119 691  0.1+  0.4+
231031 F51  0.3+  0.1+    231219 B88  0.1+  0.4+    240119 691  1.0+  0.3+
231031 F51  0.1+  0.2-    231219 B88  0.1+  0.3+    240120 807  0.0   0.1+
231031 F51  0.3-  0.2+    231221 B88  1.4+  0.1+    240120 807  0.4+  0.1+
231101 F51  0.1-  0.1+    231221 B88  0.1+  0.4+    240120 807  0.4-  0.4+

Ephemeris:
2010 JP15                a,e,i = 2.79, 0.58, 41                  q = 1.1708
Date    TT    R. A. (2000) Decl.     Delta      r    Elong.  Phase     V
2024 01 30    11 48 38.2 -41 46 28   0.6259  1.3123   107.0    45.9    20.2
...
2024 02 14    11 03 33.7 -54 20 48   0.7032  1.3973   110.4    41.5    20.4
...
2024 02 22    10 31 55.0 -58 09 06   0.7579  1.4474   111.2    39.6    20.6
...
2024 02 28    10 07 33.4 -59 45 56   0.8032  1.4867   111.6    38.3    20.8
2024 02 29    10 03 36.7 -59 56 32   0.8110  1.4934   111.6    38.1    20.8
2024 03 01    09 59 43.4 -60 05 42   0.8189  1.5001   111.6    37.9    20.8
...
2024 03 07    09 38 02.7 -60 33 09   0.8676  1.5409   111.7    36.8    21.0
...
2024 03 15    09 15 06.9 -60 11 44   0.9357  1.5966   111.6    35.4    21.2
...
2024 03 30    08 52 49.0 -57 53 55   1.0705  1.7041   110.8    33.2    21.6

M. P. C. Staff               (C) Copyright 2024 MPC           M.P.E.C. 2024-D134





More information about the Iaude mailing list